Location: *
(8.4333°S, 175.6333°W)
Time: 03:44:56
(UTC+00:00)

Daily predictions for brighter satellites

Satellite Brightness Start Highest point End
(mag) Time Altitude Azimuth Time Altitude Azimuth Time Altitude Azimuth
BLOCK DM-SL R/B 4.2 05:23:01 10° WNW 05:27:42 64° N 06:13:00 10° E
BLOCK DM-SL R/B 4.2 05:23:00 10° WNW 05:27:42 64° N 06:13:00 10° E
Cosmos 1758 Rocket 3.8 05:50:21 10° N 05:54:39 76° W 05:58:58 10° S
Cosmos 1980 Rocket 2.3 05:55:13 10° SSW 06:00:56 84° WNW 06:06:34 10° NNE
CZ-4 R/B 3.0 05:59:50 10° ESE 06:02:08 15° E 06:04:25 10° NE
FengYun 1-2 T 4.3 05:57:00 10° SSE 06:02:38 71° ENE 06:08:15 10° N
Sylda 4400 4.5 05:59:27 10° W 06:04:32 64° N 06:08:32 10° ENE
CORIOLIS 4.5 06:00:48 10° S 06:06:09 73° WSW 06:11:28 10° NNW
GPS 2-17 Rocket1 3.3 06:04:24 10° WSW 06:08:53 56° SSE 06:12:56 12° E
CZ-2C R/B 1.5 06:14:27 10° WSW 06:18:49 71° NW 06:22:24 13° NE
ARIANE 5 R/B 2.7 06:19:30 10° NW 06:20:53 15° N 06:21:37 13° NNE
Feng Yun 1-1 Rocket 4.3 06:15:14 10° SSE 06:20:57 75° ENE 06:26:46 10° N
CZ-2D R/B 3.3 06:22:28 10° SSE 06:26:15 51° E 06:29:58 10° N
Milstar 3 Cent rocket 3.7 06:13:25 10° NW 06:28:13 60° NNE 06:34:25 14° ESE
CZ-2C R/B 3.8 06:25:04 10° SE 06:30:15 36° E 06:35:30 10° NNE
Cosmos 2058 4.0 06:30:18 20° ENE 06:31:37 24° E 06:34:58 10° SE
Cosmos 2322 Rocket 3.0 06:27:23 10° SSE 06:32:18 30° ESE 06:34:59 21° ENE
CRYOSAT 2 4.3 06:27:46 10° N 06:32:37 83° E 06:37:32 10° S
ARIANE 5 R/B 4.0 06:32:07 10° NW 06:32:51 10° NNW 06:33:29 10° NNW
In-Cosmos 22 Rocket 4.3 06:28:57 10° N 06:34:21 56° E 06:39:56 10° SSE
Cosmos 482 Debris 3.1 06:32:45 10° SW 06:35:51 82° WNW 06:36:33 40° NNE
Cosmos 1892 2.8 06:37:32 10° N 06:41:18 52° E 06:45:04 10° SSE
Ariane H10+ 2.9 06:34:54 10° W 06:41:29 49° N 06:43:14 27° NE
ARIANE 5 R/B 3.8 06:37:53 10° WNW 06:41:52 62° N 06:49:46 21° E
YAOGAN 1 2.5 06:43:52 10° SSE 06:48:08 56° E 06:52:21 10° N
Cosmos 1408 3.6 06:51:21 29° SE 06:51:21 29° SE 06:53:38 10° SSE
EO 1 Delta rocket 4.3 06:49:28 10° N 06:54:14 74° W 06:59:58 10° SSW
Cosmos-2242 3.1 06:50:15 10° S 06:54:30 73° W 06:58:43 10° N
Meteor 1-27 4.4 06:49:32 10° S 06:55:00 47° E 06:57:06 32° NE
USA 276 4.4 06:53:24 10° NNW 06:54:08 15° NNW 06:54:08 15° NNW
Cosmos 1346 Rocket 3.7 06:57:55 33° SE 06:57:55 33° SE 07:00:29 10° SSE
H-2A R/B 2.1 07:01:10 10° SSE 07:06:15 55° ENE 07:08:40 30° NNE
SL-16 R/B 2.2 07:02:04 10° SSW 07:07:44 83° WNW 07:10:55 27° N
CSL-04 Rocket 3.7 07:03:03 10° SSE 07:08:30 56° ENE 07:11:24 27° N
Cosmos 1745 Rocket 4.0 07:07:32 10° N 07:13:53 82° W 07:20:17 10° S
Ariane H10-3 3.4 07:12:20 10° WNW 07:16:02 50° NNE 07:17:52 42° ENE
Okean-O 3.9 07:12:57 10° S 07:17:07 40° WSW 07:21:16 10° NNW
Cosmos 972 Rocket 3.8 07:13:59 10° S 07:18:36 69° SE 07:18:36 69° SE
ARIANE 5 DEB (SYLDA) 4.3 07:11:51 10° WNW 07:22:37 35° NNW 07:23:42 33° N
BREEZE-M DEB (TANK) 4.0 07:21:06 10° WNW 07:25:15 35° SW 07:25:33 35° SW
CZ-2C R/B 4.0 07:21:53 10° NNW 07:26:43 36° WNW 07:31:30 10° SW
Cosmos 2360 Rocket 2.7 07:27:55 10° S 07:32:13 48° SSE 07:32:13 48° SSE
CZ-4 R/B 4.0 07:33:58 10° SSW 07:36:55 19° WSW 07:39:49 10° WNW
DELTA 2 R/B (1) 4.3 07:35:49 10° WSW 07:40:56 45° NW 07:40:56 45° NW
Cosmos 1709 Rocket 3.9 07:43:54 85° SW 07:43:54 85° SW 07:50:07 10° S
Ariane H10-3 4.4 07:36:42 10° WNW 07:44:14 22° NNW 07:44:14 22° NNW
Centaur D-1A AC-31 3.1 06:37:09 10° NW 07:49:13 68° NNE 07:50:33 62° ENE
ISO 4.2 07:51:10 10° WNW 07:55:58 29° NW 07:55:58 29° NW
ATLAS 3B CENTAUR R/B 3.3 07:55:17 10° WSW 08:01:41 73° NNW 08:02:21 70° N
ATLAS 2A CENTAUR R/B 4.0 07:15:57 10° WNW 08:07:03 90° NNE 08:09:46 63° ESE
Cosmos 2322 Rocket 4.3 08:12:05 10° WSW 08:16:01 19° WNW 08:16:52 19° WNW
Ariane H10+ 4.4 08:43:35 10° WNW 09:27:46 12° E 09:29:54 10° E
